Location: Brno
(49.2000°N, 16.6330°E)
Time: 23:45:28
(UTC+02:00)

Transit 4A - Pass Details

Date: 28 July 2021
Orbit: 870 x 974 km, 66.8° (Epoch: 26 September)

Event Time Altitude Azimuth Distance (km) Brightness Sun altitude
Rises 05:16:15 0° 289° (WNW) 3,471 10.5 -1.4°
Reaches altitude 10° 05:19:56 10° 312° (NW) 2,527 10.0 -0.9°
Maximum altitude 05:23:14 15° 347° (NNW) 2,176 10.1 -0.4°
Drops below altitude 10° 05:26:33 10° 22° (NNE) 2,530 11.1 0.0°
Sets 05:30:14 0° 45° (NE) 3,477 12.8 0.6°
